| time (UTC) | temp C | wind direction | speed KPH | gust KPH | rain 1hr cm | rain 24hr cm | rain mn cm | humidity % | barometer mb |
| 20260506083038 | 7 | 204 | 12.9 | 29.0 | 0.00 | 0.00 | 0.00 | 94 | 1017.9 |
| 20260506081540 | 7 | 190 | 16.1 | 27.4 | 0.00 | 0.00 | 0.00 | 94 | 1017.9 |
| 20260506073026 | 8 | 213 | 16.1 | 32.2 | 0.00 | 0.00 | 0.00 | 92 | 1017.5 |
| 20260506071522 | 8 | 225 | 17.7 | 35.4 | 0.00 | 0.00 | 0.00 | 92 | 1017.4 |
| 20260506061516 | 10 | 235 | 16.1 | 40.2 | 0.00 | 0.00 | 0.00 | 90 | 1017.5 |
| 20260506044515 | 10 | 236 | 29.0 | 45.1 | 0.00 | 0.00 | 0.00 | 89 | 1017.4 |
| 20260506043009 | 10 | 171 | 20.9 | 37.0 | 0.00 | 0.00 | 0.00 | 90 | 1017.2 |
| 20260506041506 | 10 | 224 | 20.9 | 40.2 | 0.00 | 0.00 | 0.00 | 90 | 1017.3 |
| 20260506040004 | 10 | 203 | 22.5 | 40.2 | 0.00 | 0.00 | 0.00 | 90 | 1017.4 |
| 20260506034503 | 10 | 225 | 24.1 | 45.1 | 0.00 | 0.00 | 0.00 | 90 | 1017.2 |
| 20260506033100 | 10 | 221 | 20.9 | 46.7 | 0.00 | 0.00 | 0.00 | 90 | 1017.4 |
| 20260506031559 | 10 | 212 | 19.3 | 40.2 | 0.00 | 0.00 | 0.00 | 91 | 1017.3 |
| 20260506030057 | 10 | 243 | 25.7 | 45.1 | 0.00 | 0.00 | 0.00 | 91 | 1017.4 |
| 20260506024606 | 10 | 219 | 22.5 | 33.8 | 0.00 | 0.00 | 0.00 | 92 | 1017.5 |
| 20260506023109 | 9 | 218 | 16.1 | 30.6 | 0.00 | 0.00 | 0.00 | 92 | 1017.5 |
| 20260506021554 | 10 | 222 | 22.5 | 38.6 | 0.00 | 0.00 | 0.00 | 92 | 1017.4 |
| 20260506020055 | 10 | 203 | 20.9 | 40.2 | 0.00 | 0.00 | 0.00 | 92 | 1017.2 |
| 20260506014651 | 10 | 219 | 17.7 | 30.6 | 0.00 | 0.00 | 0.00 | 93 | 1017.1 |
| 20260506013055 | 9 | 211 | 19.3 | 37.0 | 0.00 | 0.00 | 0.00 | 94 | 1017.1 |
| 20260506011549 | 8 | 218 | 20.9 | 35.4 | 0.00 | 0.00 | 0.00 | 94 | 1016.8 |
| 20260506010049 | 8 | 206 | 24.1 | 40.2 | 0.00 | 0.00 | 0.00 | 94 | 1016.7 |
| 20260506004546 | 8 | 200 | 19.3 | 30.6 | 0.00 | 0.00 | 0.00 | 94 | 1016.5 |
| 20260506003044 | 8 | 177 | 14.5 | 27.4 | 0.00 | 0.00 | 0.00 | 94 | 1016.4 |
| 20260506001550 | 8 | 218 | 19.3 | 35.4 | 0.00 | 0.00 | 0.00 | 94 | 1016.3 |
| 20260506000041 | 8 | 239 | 19.3 | 32.2 | 0.00 | 0.00 | 0.00 | 94 | 1015.9 |
| 20260505234541 | 8 | 202 | 16.1 | 29.0 | 0.00 | 0.00 | 0.00 | 93 | 1015.8 |
| 20260505233040 | 8 | 194 | 12.9 | 33.8 | 0.00 | 0.00 | 0.00 | 92 | 1015.7 |
| 20260505231539 | 9 | 231 | 20.9 | 32.2 | 0.00 | 0.00 | 0.00 | 91 | 1015.6 |
| 20260505230058 | 9 | 218 | 17.7 | 30.6 | 0.00 | 0.00 | 0.00 | 89 | 1015.5 |
| 20260505224536 | 10 | 217 | 16.1 | 33.8 | 0.00 | 0.00 | 0.00 | 87 | 1015.0 |
| 20260505223039 | 11 | 227 | 17.7 | 33.8 | 0.00 | 0.00 | 0.00 | 85 | 1015.0 |
| 20260505221538 | 10 | 212 | 12.9 | 29.0 | 0.00 | 0.00 | 0.00 | 84 | 1014.7 |
| 20260505220048 | 11 | 197 | 17.7 | 30.6 | 0.00 | 0.00 | 0.00 | 82 | 1014.6 |
| 20260505214535 | 12 | 202 | 19.3 | 30.6 | 0.00 | 0.00 | 0.00 | 79 | 1014.5 |
| 20260505213033 | 13 | 196 | 17.7 | 33.8 | 0.00 | 0.00 | 0.00 | 75 | 1014.4 |
| 20260505211531 | 13 | 223 | 19.3 | 38.6 | 0.00 | 0.00 | 0.00 | 74 | 1014.1 |
| 20260505210032 | 13 | 181 | 22.5 | 37.0 | 0.00 | 0.00 | 0.00 | 72 | 1014.3 |
| 20260505204528 | 13 | 200 | 19.3 | 35.4 | 0.00 | 0.00 | 0.00 | 72 | 1014.4 |
| 20260505203026 | 13 | 189 | 19.3 | 33.8 | 0.00 | 0.00 | 0.00 | 70 | 1014.3 |
| 20260505201526 | 14 | 231 | 17.7 | 33.8 | 0.00 | 0.00 | 0.00 | 70 | 1014.2 |
| 20260505200034 | 14 | 200 | 17.7 | 32.2 | 0.00 | 0.00 | 0.00 | 69 | 1014.2 |
| 20260505194522 | 15 | 217 | 19.3 | 33.8 | 0.00 | 0.00 | 0.00 | 67 | 1014.0 |
| 20260505193020 | 16 | 169 | 19.3 | 33.8 | 0.00 | 0.00 | 0.00 | 63 | 1013.7 |
| 20260505191526 | 17 | 189 | 20.9 | 40.2 | 0.00 | 0.00 | 0.00 | 60 | 1013.5 |
| 20260505190019 | 16 | 221 | 20.9 | 41.8 | 0.00 | 0.00 | 0.00 | 61 | 1013.4 |
| 20260505184518 | 16 | 218 | 29.0 | 45.1 | 0.00 | 0.00 | 0.00 | 62 | 1013.4 |
| 20260505183020 | 17 | 177 | 20.9 | 38.6 | 0.00 | 0.00 | 0.00 | 62 | 1013.4 |
| 20260505181521 | 17 | 182 | 20.9 | 33.8 | 0.00 | 0.00 | 0.00 | 61 | 1013.6 |
| 20260505180012 | 15 | 223 | 17.7 | 32.2 | 0.00 | 0.00 | 0.00 | 65 | 1013.6 |
| 20260505174511 | 15 | 191 | 20.9 | 32.2 | 0.00 | 0.00 | 0.00 | 66 | 1013.5 |
| 20260505173011 | 15 | 221 | 14.5 | 30.6 | 0.00 | 0.00 | 0.00 | 70 | 1013.6 |
| 20260505171508 | 14 | 199 | 19.3 | 30.6 | 0.00 | 0.00 | 0.00 | 69 | 1013.6 |
| 20260505170005 | 14 | 183 | 20.9 | 33.8 | 0.00 | 0.00 | 0.00 | 70 | 1013.5 |
| 20260505164504 | 13 | 228 | 12.9 | 27.4 | 0.00 | 0.00 | 0.00 | 73 | 1013.6 |
| 20260505163007 | 12 | 228 | 14.5 | 27.4 | 0.00 | 0.00 | 0.00 | 74 | 1013.7 |
| 20260505161509 | 12 | 200 | 12.9 | 27.4 | 0.00 | 0.00 | 0.00 | 74 | 1013.6 |
| 20260505153059 | 11 | 172 | 17.7 | 32.2 | 0.00 | 0.00 | 0.00 | 74 | 1013.7 |
| 20260505151558 | 12 | 238 | 20.9 | 32.2 | 0.00 | 0.00 | 0.00 | 72 | 1013.5 |
| 20260505150107 | 12 | 152 | 14.5 | 30.6 | 0.00 | 0.00 | 0.00 | 73 | 1013.4 |
| 20260505124534 | 11 | 198 | 11.3 | 24.1 | 0.00 | 0.00 | 0.00 | 77 | 1013.1 |
| 20260505123034 | 11 | 239 | 17.7 | 29.0 | 0.00 | 0.00 | 0.00 | 76 | 1012.9 |
| 20260505121537 | 11 | 255 | 11.3 | 24.1 | 0.00 | 0.00 | 0.00 | 77 | 1012.8 |
| 20260505120030 | 10 | 220 | 11.3 | 20.9 | 0.00 | 0.00 | 0.00 | 80 | 1012.8 |
| 20260505114527 | 10 | 233 | 11.3 | 22.5 | 0.00 | 0.00 | 0.00 | 80 | 1012.8 |
| 20260505113024 | 10 | 233 | 14.5 | 24.1 | 0.00 | 0.00 | 0.00 | 79 | 1012.6 |
| 20260505111521 | 10 | 280 | 9.7 | 16.1 | 0.00 | 0.00 | 0.00 | 81 | 1012.5 |
| 20260505101505 | 6 | 223 | 6.4 | 14.5 | 0.00 | 0.00 | 0.00 | 89 | 1012.0 |
| 20260505100011 | 5 | 220 | 3.2 | 14.5 | 0.00 | 0.00 | 0.00 | 91 | 1011.8 |
| 20260505094503 | 5 | 245 | 4.8 | 8.0 | 0.00 | 0.00 | 0.00 | 92 | 1011.6 |
| 20260505093002 | 4 | 242 | 4.8 | 11.3 | 0.00 | 0.00 | 0.00 | 92 | 1011.5 |
| 20260505091611 | 4 | 248 | 3.2 | 9.7 | 0.00 | 0.00 | 0.00 | 92 | 1011.6 |
| 20260505090105 | 4 | 245 | 3.2 | 6.4 | 0.00 | 0.00 | 0.00 | 91 | 1011.2 |
| 20260505084558 | 4 | 245 | 3.2 | 8.0 | 0.00 | 0.00 | 0.00 | 91 | 1011.1 |